Scheller, Illinois
Current Conditions -  °F | °C
As of 3:55 AM on Thursday 23 Oct 2014 (Local Time) from KMVN Reporting Station
Clear Clear  
Wind Chill: 34°   Ceiling: Unl
Heat Index: 34°   Visibility: 7mi
Dew Point: 28°   Wind: 0mph
Humidity: 81%   Direction: NA
Pressure: 30.22"   Gusts: NA
Location:  38.19°N, 89.09°W
Report Text: KMVN 230855Z AUTO 00000KT 7SM CLR 01/M02 A3022 RMK AO1 57010
Loading
Personal Weather Stations






























Interactive Weather Map
Tropical Storm Tracking
New forecast layout! Learn more

10-Day Weather Forecast

Advertisements
Track Severe Weather on mobile